ISS
1 25544U 98067A 20198.82922586 -.00000294 00000-0 27925-5 0 9998
2 25544 51.6427 201.7586 0001353 122.6268 297.1450 15.49512454236611
NO-44
1 26931U 01043C 20198.60242125 -.00000050 00000-0 12686-4 0 9994
2 26931 067.0516 067.1742 0005872 273.7849 086.2581 14.30582115981241
SO-50
1 27607U 02058C 20198.50934810 -.00000054 00000-0 12797-4 0 9997
2 27607 064.5558 285.5326 0044318 168.4644 191.7485 14.75646263945019
CO-55
1 27844U 03031E 20198.76869562 .00000029 00000-0 32632-4 0 9992
2 27844 98.6809 206.0603 0009340 337.8556 22.2217 14.22246682884303
CO-57
1 27848U 03031J 20198.45202057 .00000028 00000-0 32366-4 0 9995
2 27848 098.6877 206.3078 0009508 351.5943 008.5074 14.21832538884061
RS-22
1 27939U 03042A 20198.85442157 .00000039 00000-0 15688-4 0 9999
2 27939 98.0949 333.2903 0011623 259.0242 100.9664 14.66872140898326
NOAA-18
1 28654U 05018A 20198.70108831 .00000046 00000-0 49328-4 0 9997
2 28654 99.0417 255.4006 0014986 145.6987 214.5155 14.12525306781139
CO-58
1 28895U 05043F 20198.60256975 .00000073 00000-0 22873-4 0 9990
2 28895 098.0135 334.1476 0016757 184.1600 175.9466 14.63783058784871
Falconsat-3
1 30776U 07006E 20198.76648524 .00001789 00000-0 48284-4 0 9993
2 30776 35.4347 92.4551 0001437 88.6597 271.4295 15.37908541741358
CO-65
1 32785U 08021C 20198.43982242 .00000138 00000-0 20416-4 0 9999
2 32785 097.5737 185.1830 0014122 042.5186 317.7122 14.88487916662189
AAUSAT2
1 32788U 08021F 20198.43224939 .00000639 00000-0 63200-4 0 9998
2 32788 097.4909 201.6428 0010630 326.0407 034.0133 14.95092465663647
DO-64
1 32789U 08021G 20198.40249167 .00001147 00000-0 78831-4 0 9997
2 32789 97.4162 240.1901 0011197 209.3232 150.7369 15.07791515666276
CO-66
1 32791U 08021J 20198.72614219 .00000324 00000-0 37986-4 0 9991
2 32791 97.5411 191.5848 0013606 12.1879 347.9667 14.91072102662824
RS-30
1 32953U 08025A 20198.69288102 .00000037 00000-0 19437-3 0 9990
2 32953 82.5009 259.7162 0018704 353.5440 6.5396 12.43097121551262
PRISM
1 33493U 09002B 20198.79637034 .00000786 00000-0 73659-4 0 9997
2 33493 98.1459 140.3076 0013991 324.5718 35.4571 14.97075920624106
NOAA-19
1 33591U 09005A 20198.77782483 .00000058 00000-0 56603-4 0 9998
2 33591 99.1948 204.8880 0013909 358.2192 1.8927 14.12421599589530
TISAT-1
1 36799U 10035E 20198.75662733 .00000401 00000-0 46342-4 0 9990
2 36799 98.1964 10.1588 0011160 229.9089 130.1151 14.91381476543495
JUGNU
1 37839U 11058B 20198.47327192 .00000272 00000-0 31879-5 0 9994
2 37839 019.9612 106.7744 0018797 348.4702 169.2980 14.12683497452897
SRMSAT
1 37841U 11058D 20198.59295612 .00000300 00000-0 19281-4 0 9995
2 37841 019.9706 170.9824 0011802 203.0802 313.9537 14.10663373452281
AO-71
1 37854U 11061E 20198.50513248 .00000465 00000-0 31473-4 0 9991
2 37854 101.7019 304.7421 0158014 335.4160 023.9577 15.07343698475858
HRBE
1 37855U 11061F 20198.53624503 .00000266 00000-0 21314-4 0 9994
2 37855 101.7147 301.9336 0170658 348.6445 011.0937 15.06371139475583
HORYU-2
1 38340U 12025D 20198.56654638 .00000098 00000-0 22276-4 0 9991
2 38340 098.2787 252.8044 0010350 312.8506 047.1833 14.75867773428847
RS-40
1 38735U 12041C 20198.43630473 .00000001 00000-0 -63372-4 0 9991
2 38735 082.4761 342.5892 0017719 097.6566 262.6526 12.42579924361456
BEESAT-3
1 39135U 13015F 20198.48890927 .00000439 00000-0 30978-4 0 9995
2 39135 064.8659 207.6372 0035208 240.0611 119.7018 15.18230372399628
BEESAT-2
1 39136U 13015G 20198.74594784 .00000574 00000-0 38059-4 0 9995
2 39136 64.8695 211.8785 0032468 276.5950 83.1480 15.17616349399953
ZACUBE-1
1 39417U 13066B 20198.41174078 .00000120 00000-0 21366-4 0 9997
2 39417 097.5650 194.8246 0058740 181.3849 178.7211 14.81290862359320
TRITON-1
1 39427U 13066M 20198.65091219 .00000162 00000-0 33940-4 0 9996
2 39427 97.7276 157.9602 0113355 345.4962 14.2998 14.68019834356131
GOMX-1
1 39430U 13066Q 20198.80731157 .00000105 00000-0 27607-4 0 9999
2 39430 97.7923 135.5641 0152339 92.0095 269.8566 14.59411423354087
LO-74
1 39440U 13066AA 20198.77525842 .00000119 00000-0 23699-4 0 9990
2 39440 97.6321 179.6593 0078609 244.5991 114.7068 14.76027152358103
AO-73
1 39444U 13066AE 20198.39283383 .00000172 00000-0 27337-4 0 9995
2 39444 097.5591 197.0533 0058064 173.4825 186.7157 14.82146970357656
SPROUT
1 39770U 14029E 20198.73976896 .00000379 00000-0 47607-4 0 9994
2 39770 97.8996 304.8972 0007744 226.1158 133.9441 14.87791834333417
DUCHIFAT-1
1 40021U 14033M 20198.47402979 .00000195 00000-0 25651-4 0 9998
2 40021 097.9429 129.8895 0012452 185.1488 174.9604 14.90928906330218
NANOSATCBR1
1 40024U 14033Q 20198.51313856 .00000098 00000-0 16073-4 0 9991
2 40024 097.9273 126.2153 0011698 189.5119 170.5879 14.90095094329561
DTUSAT-2
1 40030U 14033W 20198.52121402 .00000135 00000-0 20455-4 0 9994
2 40030 097.9026 120.2318 0011317 193.0333 167.0593 14.88730744329331
EO-80
1 40032U 14033Y 20198.27223747 .00000153 00000-0 22362-4 0 9992
2 40032 097.9032 119.9859 0011239 194.8239 165.2650 14.88679865329275
ANTELSAT
1 40034U 14033AA 20198.38270356 .00000139 00000-0 27962-4 0 9999
2 40034 097.7119 052.6860 0057070 265.2909 094.1781 14.74271920326149
VELOX-1
1 40057U 14034E 20198.68162665 .00000139 00000-0 27061-4 0 9991
2 40057 98.2848 336.4540 0011889 57.0876 303.1478 14.77891208325959
DAURIA DX 1
1 40071U 14037C 20198.76407007 .00000035 00000-0 11995-4 0 9995
2 40071 98.4620 18.7875 0009344 49.0018 311.2006 14.81375322325594
HODOYOSHI-1
1 40299U 14070B 20198.80615219 .00000383 00000-0 18618-4 0 9990
2 40299 97.3211 274.8612 0014734 92.0925 4.6597 15.24101196316286
CHUBUSAT-1
1 40300U 14070C 20198.66910543 .00000451 00000-0 22266-4 0 9995
2 40300 97.2857 266.9559 0021242 108.8242 43.4837 15.22545344315952
QSAT-EOS
1 40301U 14070D 20198.81642024 .00001218 00000-0 48199-4 0 9994
2 40301 97.2916 272.5877 0026805 85.5508 23.6852 15.27030589316415
FIREBIRD FU3
1 40377U 15003B 20198.42308347 .00001194 00000-0 49641-4 0 9994
2 40377 099.0932 264.5550 0122917 216.9237 142.3486 15.20137138301704
FIREBIRD FU4
1 40378U 15003C 20198.20956324 .00001196 00000-0 49672-4 0 9991
2 40378 99.0935 264.3984 0123101 217.5049 141.7547 15.20152404301682
GRIFEX
1 40379U 15003D 20198.44700697 .00000600 00000-0 29605-4 0 9991
2 40379 99.1002 256.4338 0131665 242.4747 116.3051 15.16470693301248
NO-84
1 40654U 15025D 20197.40755303 .00005632 00000-0 70010-4 0 9840
2 40654 54.9854 171.7503 0111369 260.4789 98.3709 15.54733241173379
DEORBITSAIL
1 40719U 15032E 20198.63166402 .00000250 00000-0 42451-4 0 9997
2 40719 97.8671 86.5508 0017661 111.0237 249.2864 14.77025601270400
NUDT-PHONESAT
1 40900U 15049B 20198.73885877 .00001324 00000-0 57220-4 0 9995
2 40900 97.4298 209.4385 0010941 237.1036 233.3403 15.24203959267656
XW-2A
1 40903U 15049E 20198.75439192 .00001449 00000-0 34533-4 0 9995
2 40903 97.2861 247.7259 0014056 150.1835 319.7952 15.43178870270993
XW-2C
1 40906U 15049H 20198.82110016 .00000349 00000-0 21549-4 0 9998
2 40906 97.4773 199.7368 0012997 272.8509 210.6075 15.16104356266706
XW-2D
1 40907U 15049J 20198.87513985 .00000557 00000-0 32161-4 0 9999
2 40907 97.4755 199.5010 0012367 270.2611 206.9713 15.16342743266730
LILACSAT-2
1 40908U 15049K 20198.78459397 .00000322 00000-0 21304-4 0 9993
2 40908 97.4917 197.7237 0014229 282.1605 158.5111 15.14062358266436
XW-2E
1 40909U 15049L 20198.87390228 .00000740 00000-0 39164-4 0 9998
2 40909 97.4637 203.0276 0011725 259.1222 218.4710 15.18482892266992
